Regional Weather Roundup
Issued by NWS Northern Indiana

Home | Current Version | Previous Version | Text Only | Print | Product List | Glossary Off
Versions: 1 2 3 4 5 6 7 8 9 10 11 12 13 14 15 16 17 18 19 20 21 22 23 24 25 26 27 28 29 30 31 32 33 34 35 36 37 38 39 40 41 42 43 44 45 46 47 48 49 50

000
ASUS43 KIWX 042210
RWRIWX

KIWX WEATHER ROUNDUP
NATIONAL WEATHER SERVICE NORTHERN INDIANA
600 PM EDT MON MAY 04 2015

NOTE: "FAIR" INDICATES FEW OR NO CLOUDS BELOW 12,000 FEET WITH NO
SIGNIFICANT WEATHER AND/OR OBSTRUCTIONS TO VISIBILITY.

* THESE STATIONS ARE NOT UNDER NWS QUALITY CONTROL. THEY ALSO MAY NOT
  REPORT WEATHER SUCH AS PRECIPITATION OR FOG.

INZ001>027-042300-
NORTHERN INDIANA

CITY           SKY/WX    TMP DP  RH WIND       PRES   REMARKS
GARY*          CLOUDY    64 N/A N/A E14       30.15S
VALPARAISO     CLOUDY    69  59  70 N5        30.13F
MICHIGAN CITY* PTSUNNY   63  52  67 NE6       30.15S
LAPORTE*       PTSUNNY   73  60  64 N7        30.14S
KNOX*          CLOUDY    70  45  40 SW3       30.13S
SOUTH BEND     PTSUNNY   72  57  59 NW8       30.14S
GOSHEN         PTSUNNY   70  61  73 W12       30.14R
MONTICELLO*    CLOUDY    67  63  87 CALM      30.14R
LOGANSPORT*    CLOUDY    68  59  73 SW5       30.16R
ROCHESTER*     CLOUDY    72  63  73 SW5       30.15R
WARSAW*        CLOUDY    68  61  77 W6        30.14F
ANGOLA*        MOSUNNY   73  59  60 W10       30.13S
FORT WAYNE     PTSUNNY   68  61  78 SW9       30.16S
HUNTINGTON*    CLOUDY    67  61  81 W3        30.16R
PERU/GRISSOM   CLOUDY    68  62  78 SW6       30.15R
MARION*        CLOUDY    68  59  72 SW8       30.17S

$$
INZ028>050-042300-
CENTRAL INDIANA

CITY           SKY/WX    TMP DP  RH WIND       PRES   REMARKS
LAFAYETTE      TSTM      65  64  97 SE3       30.13R FOG
KOKOMO*        CLOUDY    70  63  78 SW7       30.16R
MUNCIE*        PTSUNNY   72  58  61 W8        30.17R
INDIANAPOLIS   PTSUNNY   75  59  57 S12       30.12F

$$
MIZ043>046-050>051-056>058-064>065-071>073-077>080-042300-
SOUTHWEST LOWER MICHIGAN

CITY           SKY/WX    TMP DP  RH WIND       PRES   REMARKS
BATTLE CREEK   PTSUNNY   73  55  53 NW14      30.13R
BENTON HARBOR  PTSUNNY   63  54  72 VRB3      30.14F
COLDWATER*     PTSUNNY   72  54  54 W10       30.13R
HILLSDALE*     PTSUNNY   74  56  53 W10G17    30.12S
HOLLAND        MOSUNNY   63  53  70 NW6       30.15S
GRAND RAPIDS   PTSUNNY   73  54  51 W15       30.12R
KALAMAZOO      PTSUNNY   71  56  58 NW12      30.14R
STURGIS*       PTSUNNY   73  57  56 W3G12     30.13R
THREE RIVERS*  FAIR      72  55  56 W9        30.13S

$$
OHZ001>008-015>018-024>025-042300-
NORTHWEST OHIO

CITY           SKY/WX    TMP DP  RH WIND       PRES   REMARKS
WAUSEON*       CLOUDY    73  59  60 SW12G17   30.12S
DEFIANCE       PTSUNNY   70  61  73 SW10      30.14S
FINDLAY        CLOUDY    67  62  84 W6        30.16R
TOLEDO EXPRESS PTSUNNY   71  60  68 SW14      30.12S
TOLEDO METCALF PTSUNNY   71  60  68 SW17G23   30.14S
LIMA           CLOUDY    66  61  84 SW5       30.17S

$$
AND FOR LAKE MICHIGAN COASTAL AND OPEN LAKE BUOY OBSERVATIONS

STATION/POSITION TEMP    WIND        PRES    VSBY  WAVE
                 AIR SEA DIR/SP/G                  HT/PER
                 (F)     (DEG/KT/KT) (MB)    (MI)  (FT/S)
CALUMET HARBOR    55      80/  5/  7   N/A
MICHIGAN CITY     53      40/ 12/ 14   N/A
BURNS HARBOR      55      80/ 12/ 14 1021.0S
SAINT JOSEPH      57     350/  5/  7 1021.0F
4 MI NW BRIDGMAN  51 49   50/  8/ 10   N/A           0
MICHIGAN CITY     51 50   90/  8/ 10   N/A           1
MICHIGAN CITY CG                     1022.6          1

$$
&&


USA.gov is the U.S. government's official web portal to all federal, state and local government web resources and services.